Location: Astronomy Club of Akron Observatory
(40.9700°N, 81.5606°W)
Time: 05:13:33
(UTC-04:00)

ATLAS 2AS CENTAUR R/B - Visible Passes

Search period start: 06 July 2015 00:00
Search period end: 16 July 2015 00:00
Orbit: 912 x 1300 km, 63.7° (Epoch: 29 June)

Date Brightness Start Highest point End Pass type
(mag) Time Alt. Az. Time Alt. Az. Time Alt. Az.
07 Jul 5.1 22:07:21 10° WNW 22:12:14 17° WSW 22:16:33 10° SW visible
08 Jul 4.8 21:21:15 10° NW 21:27:52 28° WSW 21:33:59 10° SSW visible
10 Jul 5.5 21:45:44 10° W 21:48:34 12° WSW 21:50:45 10° WSW visible
